Weather History for KHEQ - January, 2014

Change the Weather History Date:

Wednesday, January 29, 2014

  Actual Average Record
Temperature  
Mean Temperature 34 °F -  
Max Temperature 59 °F 40 °F 59 °F (2014)
Min Temperature 10 °F 16 °F 10 °F (2014)
Degree Days  
Heating Degree Days 30    
Moisture  
Dew Point 11 °F    
Average Humidity 43    
Maximum Humidity 79    
Minimum Humidity 13    
Precipitation  
Precipitation 0.00 in - - ()
Sea Level Pressure  
Sea Level Pressure 29.76 in    
Wind  
Wind Speed 10 mph (WSW)    
Max Wind Speed 17 mph    
Max Gust Speed 24 mph    
Visibility 10 miles    
Events      
Averages and records for this station are not official NWS values.
T = Trace of Precipitation, MM = Missing Value Source: NWS Daily Summary

Daily Weather History Graph

Daily Weather History Graph

Search for Another Location

Airport or City:

Trip Planner

Search our weather history database for the weather conditions in past years. The results will help you decide how hot, cold, wet, or windy it might be!

Date:

Astronomy

Jan. 29, 2014 Rise Set
Actual Time 7:01 AM MST 5:03 PM MST
Civil Twilight 6:32 AM MST 5:32 PM MST
Nautical Twilight 5:59 AM MST 6:05 PM MST
Astronomical Twilight 5:27 AM MST 6:37 PM MST
Moon 5:40 AM MST (1/29) 4:05 PM MST (1/29)
Length of Visible Light 11h 00m
Length of Day
10h 02m
Waning Crescent, 2% of the Moon is Illuminated
Jan 29
Waning Crescent
Jan 30
New
Feb 6
First Quarter
Feb 14
Full
Feb 22
Last Quarter

Hourly Weather History & Observations

Time (MST) Temp. Windchill Dew Point Humidity Pressure Visibility Wind Dir Wind Speed Gust Speed Precip Events Conditions
12:15 AM 12.2 °F 4.3 °F 3.2 °F 67% 30.02 in 10.0 mi WSW 4.6 mph - N/A   Clear
12:35 AM 14.0 °F 2.0 °F 5.0 °F 67% 30.01 in 10.0 mi WSW 9.2 mph - N/A   Clear
12:55 AM 12.2 °F -3.1 °F 3.2 °F 67% 30.00 in 10.0 mi West 13.8 mph - N/A   Clear
1:15 AM 10.4 °F -3.3 °F 3.2 °F 73% 29.99 in 10.0 mi West 10.4 mph - N/A   Clear
1:35 AM 12.2 °F -1.8 °F 3.2 °F 67% 29.97 in 10.0 mi WSW 11.5 mph - N/A   Clear
1:55 AM 12.2 °F -1.0 °F 3.2 °F 67% 29.97 in 10.0 mi WSW 10.4 mph - N/A   Clear
2:15 AM 12.2 °F -1.0 °F 3.2 °F 67% 29.97 in 10.0 mi West 10.4 mph - N/A   Clear
2:35 AM 14.0 °F 2.0 °F 5.0 °F 67% 29.96 in 10.0 mi WSW 9.2 mph - N/A   Clear
2:55 AM 14.0 °F 2.0 °F 5.0 °F 67% 29.96 in 10.0 mi West 9.2 mph - N/A   Clear
3:15 AM 12.2 °F 6.1 °F 3.2 °F 67% 29.95 in 10.0 mi South 3.5 mph - N/A   Clear
3:35 AM 14.0 °F 6.5 °F 5.0 °F 67% 29.94 in 10.0 mi WSW 4.6 mph - N/A   Clear
3:55 AM 14.0 °F 2.9 °F 5.0 °F 67% 29.94 in 10.0 mi West 8.1 mph - N/A   Clear
4:15 AM 14.0 °F 3.9 °F 5.0 °F 67% 29.93 in 10.0 mi West 6.9 mph - N/A   Clear
4:35 AM 14.0 °F 3.9 °F 5.0 °F 67% 29.93 in 10.0 mi West 6.9 mph - N/A   Clear
4:55 AM 14.0 °F 2.0 °F 6.8 °F 73% 29.92 in 10.0 mi WSW 9.2 mph - N/A   Clear
5:15 AM 14.0 °F 2.9 °F 6.8 °F 73% 29.92 in 10.0 mi WSW 8.1 mph - N/A   Clear
5:35 AM 14.0 °F 5.1 °F 8.6 °F 79% 29.92 in 10.0 mi West 5.8 mph - N/A   Clear
5:55 AM 14.0 °F 2.0 °F 8.6 °F 79% 29.92 in 10.0 mi WSW 9.2 mph - N/A   Clear
6:15 AM 14.0 °F 5.1 °F 6.8 °F 73% 29.91 in 10.0 mi West 5.8 mph - N/A   Clear
6:35 AM 17.6 °F 5.7 °F 8.6 °F 68% 29.92 in 10.0 mi West 10.4 mph - N/A   Clear
6:55 AM 17.6 °F 5.0 °F 6.8 °F 63% 29.92 in 10.0 mi West 11.5 mph - N/A   Clear
7:15 AM 17.6 °F 6.4 °F 6.8 °F 63% 29.91 in 10.0 mi WSW 9.2 mph - N/A   Clear
7:35 AM 17.6 °F 5.7 °F 8.6 °F 68% 29.91 in 10.0 mi WSW 10.4 mph - N/A   Clear
7:55 AM 19.4 °F 8.6 °F 8.6 °F 63% 29.91 in 10.0 mi WSW 9.2 mph - N/A   Clear
8:15 AM 21.2 °F 11.7 °F 10.4 °F 63% 29.91 in 10.0 mi West 8.1 mph - N/A   Clear
8:35 AM 26.6 °F 18.2 °F 12.2 °F 55% 29.91 in 10.0 mi West 8.1 mph - N/A   Clear
8:55 AM 32.0 °F 23.6 °F 14.0 °F 48% 29.91 in 10.0 mi West 10.4 mph - N/A   Clear
9:15 AM 35.6 °F 28.6 °F 14.0 °F 41% 29.91 in 10.0 mi West 9.2 mph - N/A   Clear
9:35 AM 37.4 °F 30.8 °F 12.2 °F 36% 29.90 in 10.0 mi WSW 9.2 mph - N/A   Clear
9:55 AM 44.6 °F 38.1 °F 10.4 °F 25% 29.90 in 10.0 mi West 13.8 mph - N/A   Clear
10:15 AM 46.4 °F 40.1 °F 10.4 °F 23% 29.89 in 10.0 mi WSW 15.0 mph - N/A   Clear
10:35 AM 46.4 °F 40.4 °F 8.6 °F 22% 29.89 in 10.0 mi West 13.8 mph 17.3 mph N/A   Clear
10:55 AM 51.8 °F - 8.6 °F 18% 29.87 in 10.0 mi WSW 13.8 mph - N/A   Clear
11:15 AM 53.6 °F - 8.6 °F 16% 29.86 in 10.0 mi WSW 9.2 mph - N/A   Clear
11:35 AM 53.6 °F - 5.0 °F 14% 29.85 in 10.0 mi SW 11.5 mph 19.6 mph N/A   Clear
11:55 AM 53.6 °F - 3.2 °F 13% 29.83 in 10.0 mi SW 11.5 mph - N/A   Clear
12:15 PM 53.6 °F - 5.0 °F 14% 29.81 in 10.0 mi SW 16.1 mph - N/A   Clear
12:35 PM 53.6 °F - 10.4 °F 18% 29.79 in 10.0 mi SW 17.3 mph 21.9 mph N/A   Clear
12:55 PM 53.6 °F - 12.2 °F 19% 29.77 in 10.0 mi WSW 16.1 mph 24.2 mph N/A   Clear
1:15 PM 55.4 °F - 14.0 °F 20% 29.76 in 10.0 mi WSW 11.5 mph 21.9 mph N/A   Clear
1:35 PM 55.4 °F - 12.2 °F 18% 29.76 in 10.0 mi WSW 8.1 mph 18.4 mph N/A   Clear
1:55 PM 59.0 °F - 12.2 °F 16% 29.74 in 10.0 mi SW 15.0 mph - N/A   Clear
2:15 PM 59.0 °F - 12.2 °F 16% 29.73 in 10.0 mi WSW 10.4 mph - N/A   Clear
2:35 PM 59.0 °F - 14.0 °F 17% 29.72 in 10.0 mi WSW 10.4 mph 18.4 mph N/A   Clear
2:55 PM 59.0 °F - 14.0 °F 17% 29.70 in 10.0 mi SW 12.7 mph 16.1 mph N/A   Clear
3:15 PM 59.0 °F - 15.8 °F 19% 29.68 in 10.0 mi WSW 15.0 mph 19.6 mph N/A   Clear
3:35 PM 55.4 °F - 14.0 °F 20% 29.67 in 10.0 mi SW 12.7 mph - N/A   Clear
3:55 PM 53.6 °F - 17.6 °F 24% 29.67 in 10.0 mi SW 12.7 mph - N/A   Clear
4:15 PM 53.6 °F - 17.6 °F 24% 29.65 in 10.0 mi SSW 12.7 mph - N/A   Clear
4:35 PM 51.8 °F - 14.0 °F 22% 29.63 in 10.0 mi SSW 11.5 mph - N/A   Clear
4:55 PM 46.4 °F 41.5 °F 12.2 °F 25% 29.62 in 10.0 mi SSW 10.4 mph - N/A   Clear
5:15 PM 44.6 °F 39.2 °F 12.2 °F 27% 29.61 in 10.0 mi SSW 10.4 mph - N/A   Clear
5:35 PM 42.8 °F 37.0 °F 14.0 °F 31% 29.60 in 10.0 mi SSW 10.4 mph - N/A   Clear
5:55 PM 41.0 °F 33.9 °F 12.2 °F 31% 29.60 in 10.0 mi South 12.7 mph - N/A   Clear
6:15 PM 42.8 °F 37.0 °F 14.0 °F 31% 29.59 in 10.0 mi SSW 10.4 mph - N/A   Scattered Clouds
6:35 PM 41.0 °F 34.3 °F 14.0 °F 33% 29.57 in 10.0 mi SSW 11.5 mph - N/A   Scattered Clouds
6:55 PM 42.8 °F 35.4 °F 15.8 °F 34% 29.56 in 10.0 mi SSW 15.0 mph - N/A   Scattered Clouds
7:15 PM 42.8 °F 36.2 °F 15.8 °F 34% 29.54 in 10.0 mi SSW 12.7 mph 18.4 mph N/A   Scattered Clouds
7:35 PM 44.6 °F 37.8 °F 15.8 °F 31% 29.52 in 10.0 mi SSW 15.0 mph - N/A   Scattered Clouds
7:55 PM 44.6 °F 37.4 °F 17.6 °F 34% 29.50 in 10.0 mi SSW 16.1 mph - N/A   Mostly Cloudy
8:15 PM 42.8 °F 35.8 °F 17.6 °F 36% 29.49 in 10.0 mi SSW 13.8 mph - N/A   Mostly Cloudy
8:35 PM 42.8 °F 35.1 °F 17.6 °F 36% 29.48 in 10.0 mi SSW 16.1 mph 23.0 mph N/A   Scattered Clouds
8:55 PM 42.8 °F 35.8 °F 19.4 °F 39% 29.47 in 10.0 mi SW 13.8 mph 17.3 mph N/A   Clear
9:15 PM 44.6 °F 39.2 °F 19.4 °F 37% 29.47 in 10.0 mi SW 10.4 mph - N/A   Clear
9:35 PM 42.8 °F 38.0 °F 21.2 °F 42% 29.45 in 10.0 mi SW 8.1 mph - N/A   Scattered Clouds
9:55 PM 41.0 °F 34.3 °F 19.4 °F 42% 29.45 in 10.0 mi SW 11.5 mph - N/A   Scattered Clouds
10:15 PM 42.8 °F 36.2 °F 19.4 °F 39% 29.43 in 10.0 mi SW 12.7 mph 17.3 mph N/A   Overcast
10:35 PM 42.8 °F 37.0 °F 19.4 °F 39% 29.43 in 10.0 mi SW 10.4 mph - N/A   Overcast
10:55 PM 42.8 °F 37.0 °F 19.4 °F 39% 29.42 in 10.0 mi SW 10.4 mph - N/A   Mostly Cloudy
11:15 PM 42.8 °F 37.0 °F 19.4 °F 39% 29.42 in 10.0 mi WSW 10.4 mph - N/A   Scattered Clouds
11:35 PM 42.8 °F 38.0 °F 21.2 °F 42% 29.39 in 10.0 mi WSW 8.1 mph - N/A   Clear
11:55 PM 42.8 °F 36.6 °F 23.0 °F 46% 29.39 in 10.0 mi WSW 11.5 mph - N/A   Clear